Munster, IN

3:28 AM CST on January 17, 2017 (GMT -0600)
Lansing Municipal

Weather History for KIGQ - December, 2011

Change the Weather History Date:

Saturday, December 17, 2011

  Actual Average (KGYY) Record (KGYY)
Temperature  
Mean Temperature 30 °F -  
Max Temperature 32 °F 37 °F 58 °F (1977)
Min Temperature 27 °F 22 °F -8 °F (1951)
Degree Days  
Heating Degree Days 36    
Moisture  
Dew Point 27 °F    
Average Humidity 90    
Maximum Humidity 97    
Minimum Humidity 85    
Precipitation  
Precipitation 0.00 in - - ()
Sea Level Pressure  
Sea Level Pressure 30.26 in    
Wind  
Wind Speed 4 mph (SW)    
Max Wind Speed 10 mph    
Max Gust Speed -    
Visibility 8 miles    
Events Snow    
Averages and records for this station are not official NWS values.
T = Trace of Precipitation, MM = Missing Value Source: NWS Daily Summary

Daily Weather History Graph

Daily Weather History Graph

Search for Another Location

Airport or City:

Trip Planner

Search our weather history database for the weather conditions in past years. The results will help you decide how hot, cold, wet, or windy it might be!

Date:

Astronomy

Dec. 17, 2011 Rise Set
Actual Time 7:10 AM CST 4:21 PM CST
Civil Twilight 6:39 AM CST 4:52 PM CST
Nautical Twilight 6:04 AM CST 5:27 PM CST
Astronomical Twilight 5:30 AM CST 6:01 PM CST
Moon No Moon Rise 11:20 AM CST
Length of Visible Light 10h 13m
Length of Day
9h 10m
Waning Gibbous, 53% of the Moon is Illuminated
Dec 17
Waning Gibbous
Dec 17
Last Quarter
Dec 24
New
Jan 1
First Quarter
Jan 9
Full

Hourly Weather History & Observations

Time (CST) Temp. Windchill Dew Point Humidity Pressure Visibility Wind Dir Wind Speed Gust Speed Precip Events Conditions
12:15 AM 27.1 °F 21.8 °F 23.9 °F 88% 30.34 in 10.0 mi West 4.6 mph - N/A   Overcast
12:35 AM 27.5 °F 22.2 °F 24.3 °F 88% 30.33 in 10.0 mi West 4.6 mph - N/A   Overcast
12:55 AM 27.5 °F 22.2 °F 24.6 °F 89% 30.33 in 10.0 mi West 4.6 mph - N/A   Overcast
1:15 AM 27.5 °F 23.6 °F 24.4 °F 88% 30.32 in 10.0 mi WSW 3.5 mph - N/A   Overcast
1:35 AM 27.5 °F 22.2 °F 24.4 °F 88% 30.33 in 10.0 mi West 4.6 mph - N/A   Overcast
1:55 AM 27.7 °F 23.8 °F 24.6 °F 88% 30.33 in 10.0 mi West 3.5 mph - N/A   Overcast
2:15 AM 28.2 °F 24.4 °F 24.8 °F 87% 30.32 in 10.0 mi West 3.5 mph - N/A   Overcast
2:35 AM 28.2 °F - 24.8 °F 87% 30.32 in 10.0 mi Calm Calm - N/A   Overcast
2:55 AM 28.2 °F 24.4 °F 25.2 °F 88% 30.32 in 10.0 mi West 3.5 mph - N/A   Overcast
3:15 AM 28.4 °F 24.6 °F 25.3 °F 88% 30.32 in 10.0 mi West 3.5 mph - N/A   Overcast
3:35 AM 28.4 °F 23.3 °F 25.5 °F 89% 30.32 in 10.0 mi West 4.6 mph - N/A   Overcast
3:55 AM 28.8 °F 25.0 °F 25.3 °F 87% 30.32 in 10.0 mi West 3.5 mph - N/A   Overcast
4:15 AM 28.4 °F - 25.3 °F 88% 30.31 in 10.0 mi Calm Calm - N/A   Overcast
4:35 AM 28.4 °F - 25.5 °F 89% 30.31 in 10.0 mi Calm Calm - N/A   Overcast
4:55 AM 28.4 °F 24.6 °F 25.7 °F 90% 30.30 in 5.0 mi WSW 3.5 mph - N/A Snow Light Snow
5:15 AM 28.4 °F - 26.1 °F 91% 30.30 in 4.0 mi Calm Calm - N/A Snow Light Snow
5:35 AM 28.4 °F - 26.4 °F 92% 30.30 in 7.0 mi Calm Calm - N/A Snow Light Snow
5:55 AM 28.4 °F - 26.6 °F 93% 30.30 in 5.0 mi Calm Calm - N/A Snow Light Snow
6:15 AM 28.4 °F 24.6 °F 27.0 °F 94% 30.30 in 1.8 mi SW 3.5 mph - N/A Snow Light Snow
6:35 AM 28.0 °F 24.2 °F 27.0 °F 96% 30.30 in 1.8 mi SSW 3.5 mph - N/A Snow Light Snow
6:55 AM 27.9 °F - 27.0 °F 96% 30.29 in 2.5 mi Calm Calm - N/A Snow Light Snow
7:15 AM 27.9 °F - 27.1 °F 97% 30.29 in 2.5 mi Calm Calm - N/A Snow Light Snow
7:35 AM 28.0 °F - 27.3 °F 97% 30.28 in 1.2 mi Calm Calm - N/A Snow Light Snow
7:55 AM 28.0 °F 22.8 °F 27.0 °F 96% 30.28 in 2.0 mi SSW 4.6 mph - N/A Snow Light Snow
8:15 AM 28.0 °F 22.8 °F 27.0 °F 96% 30.28 in 1.2 mi South 4.6 mph - N/A Snow Light Snow
8:35 AM 28.2 °F 24.4 °F 27.1 °F 96% 30.28 in 3.0 mi SSW 3.5 mph - N/A Snow Light Snow
8:55 AM 28.4 °F 24.6 °F 27.3 °F 96% 30.28 in 4.0 mi SSW 3.5 mph - N/A Snow Light Snow
9:15 AM 28.4 °F 22.2 °F 27.1 °F 95% 30.29 in 7.0 mi SSW 5.8 mph - N/A   Overcast
9:35 AM 28.8 °F 22.6 °F 26.8 °F 92% 30.29 in 5.0 mi SSW 5.8 mph - N/A Snow Light Snow
9:55 AM 29.1 °F 22.1 °F 26.8 °F 91% 30.28 in 10.0 mi SSW 6.9 mph - N/A   Overcast
10:15 AM 29.1 °F 20.0 °F 26.6 °F 90% 30.28 in 10.0 mi SSW 10.4 mph - N/A   Overcast
10:35 AM 29.3 °F 20.8 °F 26.6 °F 90% 30.28 in 10.0 mi SSW 9.2 mph - N/A   Overcast
10:55 AM 29.3 °F 21.5 °F 27.0 °F 91% 30.27 in 10.0 mi SSW 8.1 mph - N/A   Overcast
11:15 AM 29.3 °F 20.2 °F 26.6 °F 90% 30.26 in 10.0 mi SSW 10.4 mph - N/A   Overcast
11:35 AM 29.3 °F 21.5 °F 26.6 °F 90% 30.25 in 10.0 mi SSW 8.1 mph - N/A   Overcast
11:55 AM 29.7 °F 20.7 °F 26.2 °F 87% 30.24 in 10.0 mi South 10.4 mph - N/A   Overcast
12:15 PM 30.0 °F 23.2 °F 26.4 °F 86% 30.23 in 10.0 mi SSW 6.9 mph - N/A   Overcast
12:35 PM 30.2 °F 24.3 °F 26.2 °F 85% 30.22 in 10.0 mi South 5.8 mph - N/A   Overcast
12:55 PM 30.4 °F 22.9 °F 26.4 °F 85% 30.22 in 10.0 mi SSW 8.1 mph - N/A   Overcast
1:15 PM 30.6 °F 23.1 °F 26.6 °F 85% 30.21 in 10.0 mi SSW 8.1 mph - N/A   Overcast
1:35 PM 30.7 °F 23.3 °F 26.6 °F 85% 30.21 in 10.0 mi SSW 8.1 mph - N/A   Overcast
1:55 PM 30.9 °F 24.3 °F 27.1 °F 86% 30.20 in 10.0 mi SSW 6.9 mph - N/A   Overcast
2:15 PM 32.0 °F 25.6 °F 28.4 °F 87% 30.20 in 10.0 mi SSW 6.9 mph - N/A   Overcast
2:35 PM 31.1 °F 24.5 °F 27.7 °F 87% 30.19 in 10.0 mi SSW 6.9 mph - N/A   Overcast
2:55 PM 31.5 °F 24.9 °F 27.9 °F 87% 30.19 in 10.0 mi SW 6.9 mph - N/A   Overcast
3:15 PM 31.5 °F 24.9 °F 28.2 °F 88% 30.20 in 10.0 mi NNW 6.9 mph - N/A   Overcast
3:35 PM 31.6 °F 24.4 °F 28.4 °F 88% 30.20 in 7.0 mi NNW 8.1 mph - N/A   Overcast
3:55 PM 31.8 °F 27.3 °F 28.9 °F 89% 30.20 in 7.0 mi SW 4.6 mph - N/A   Overcast
4:15 PM 31.8 °F 26.2 °F 29.1 °F 90% 30.19 in 7.0 mi SSW 5.8 mph - N/A   Overcast
4:35 PM 31.8 °F 27.3 °F 29.3 °F 90% 30.20 in 7.0 mi NW 4.6 mph - N/A   Overcast
4:55 PM 31.8 °F 27.3 °F 29.3 °F 90% 30.20 in 7.0 mi SSW 4.6 mph - N/A   Overcast
5:15 PM 32.0 °F 27.5 °F 29.3 °F 90% 30.19 in 7.0 mi SSW 4.6 mph - N/A   Overcast
5:35 PM 31.6 °F 28.3 °F 29.3 °F 91% 30.20 in 7.0 mi SW 3.5 mph - N/A   Overcast
5:55 PM 32.0 °F 25.6 °F 30.2 °F 93% 30.19 in 7.0 mi SSW 6.9 mph - N/A   Overcast
6:15 PM 30.9 °F 27.5 °F 28.9 °F 92% 30.19 in 7.0 mi SW 3.5 mph - N/A   Overcast
6:35 PM 30.4 °F 25.6 °F 28.4 °F 92% 30.19 in 7.0 mi SSW 4.6 mph - N/A   Mostly Cloudy
6:55 PM 27.5 °F 22.2 °F 26.4 °F 96% 30.19 in 7.0 mi SW 4.6 mph - N/A   Scattered Clouds
7:15 PM 28.4 °F 24.6 °F 27.5 °F 96% 30.20 in 7.0 mi WSW 3.5 mph - N/A   Scattered Clouds
7:35 PM 29.7 °F 22.8 °F 28.6 °F 96% 30.20 in 5.0 mi WSW 6.9 mph - N/A   Mostly Cloudy
7:55 PM 30.6 °F 22.4 °F 28.4 °F 92% 30.21 in 7.0 mi West 9.2 mph - N/A   Overcast
8:15 PM 29.8 °F 23.0 °F 27.7 °F 92% 30.21 in 7.0 mi West 6.9 mph - N/A   Scattered Clouds
8:35 PM 28.8 °F 23.7 °F 27.1 °F 94% 30.20 in 7.0 mi WSW 4.6 mph - N/A   Clear
8:55 PM 28.0 °F 22.8 °F 26.6 °F 94% 30.20 in 7.0 mi SW 4.6 mph - N/A   Mostly Cloudy
9:15 PM 29.5 °F 25.9 °F 28.4 °F 96% 30.21 in 5.0 mi WSW 3.5 mph - N/A   Overcast
9:35 PM 30.2 °F 25.4 °F 28.8 °F 94% 30.20 in 7.0 mi WSW 4.6 mph - N/A   Overcast
9:55 PM 30.9 °F 27.5 °F 29.1 °F 93% 30.20 in 7.0 mi West 3.5 mph - N/A   Overcast
10:15 PM 31.1 °F 26.4 °F 29.3 °F 93% 30.20 in 7.0 mi West 4.6 mph - N/A   Overcast
10:35 PM 31.1 °F 25.4 °F 29.1 °F 92% 30.19 in 7.0 mi WSW 5.8 mph - N/A   Overcast
10:55 PM 31.3 °F 27.9 °F 29.3 °F 92% 30.19 in 7.0 mi WSW 3.5 mph - N/A   Overcast
11:15 PM 31.8 °F 26.2 °F 29.3 °F 90% 30.19 in 7.0 mi SW 5.8 mph - N/A   Overcast
11:35 PM 32.0 °F 24.2 °F 29.7 °F 91% 30.18 in 7.0 mi WSW 9.2 mph - N/A   Overcast
11:55 PM 32.2 °F 24.4 °F 29.7 °F 90% 30.18 in 7.0 mi WSW 9.2 mph - N/A   Overcast